Weather in Saumalkol

Kazakhstan     53°17′40″N   68°06′14″E
temp.,
°C
wind,
m/s
gust,
m/s
humid.,
%
clouds,
%
prec.,
mm/h
press.,
hPa
HPBL,
m
11 may, tue
tue1100:00+9ne4105765 0.0 1023178
03:00+8ne476041 0.0 1023112
06:00+7ne346715 0.0 102552
09:00+12ne47510 0.0 1026417
12:00+16ne56380 0.0 10261489
15:00+19ne45320 0.0 10261713
18:00+19n45290 0.0 10261952
21:00+15nnw22440 0.0 102611
12 may, wed
wed1200:00+13nw224544 0.0 102711
03:00+11nw2248100 0.0 102710
06:00+11wnw335369 0.0 102820
09:00+16nw34435 0.0 1028292
12:00+20nw563085 0.0 10271745
15:00+22nw682476 0.0 10262203
18:00+22nw5828100 0.0 10252184
21:00+18wnw3350100 0.0 102432
13 may, thu
thu1300:00+16nne375356 0.0 1025167
03:00+12ne225940 0.0 102625
06:00+11nnw226381 0.0 102610
09:00+16nw4550100 0.0 1026413
12:00+21nw564213 0.0 10251431
15:00+22nnw5840100 0.0 10242164
18:00+23nw583941 0.0 1023572
21:00+19nnw35525 0.0 102364
14 may, fri
fri1400:00+16nnw33555 0.0 102433
03:00+16n3560100 0.0 1024103
06:00+14ne35765 0.0 102682
09:00+18ne23595 0.0 1027467
12:00+22nne34425 0.0 10271449
15:00+24n33355 0.0 10261828
18:00+24n23335 0.0 10261979
21:00+21sse22454 0.0 102611
15 may, sat
sat1500:00+18ssw46520 0.0 102574
03:00+16ssw36571 0.0 102587
06:00+17ssw385894 0.0 1025175
09:00+19wsw485543 0.0 1025349
12:00+26w453412 0.0 10231081
15:00+28wnw462798 0.0 10222987
18:00+27wnw6531100 0.1 10202885
21:00+19sse475884 2.9 1021107